sat.trackr.live / text

‹ back to catalog

APRIZESAT 7

NORAD 39416 · 2013-066A

PAYLOAD ACTIVE UNKNOWN

§ Identity

Operator
Country
US
Launch date
2013-11-21
Launch site
DLS
Launch vehicle
Mass (kg)
RCS (m²)
0.11

Purposes: tech_demo

External: N2YO · Heavens-Above · Gunter

§ Orbital elements

Epoch: 2026-09-03T10:30:51.833088Z

Period
96.53 min
Inclination
97.7779°
Eccentricity
0.0034617
Mean motion
14.91726636 rev/d
Perigee alt
568.4 km
Apogee alt
616.7 km
Semi-major
6,970.7 km
B*
8.0240e-5
RAAN
198.5669°
Arg perigee
313.8053°
Mean anomaly
46.0304°
Rev number
69,289

§ Raw data

APRIZESAT 71 39416U 13066A   26246.43809992  .00000758  00000+0  80240-4 0  99902 39416  97.7779 198.5669 0034617 313.8053  46.0304 14.91726636692895

JSON: /api/v1/satellites/39416 · /tle

For live sub-satellite position, see the globe view (requires WebGL).

§ Visibility from observer

Set your observer location to see the next 7 days of passes ≥ 10°. The values pass through the URL so the page stays shareable.

No JS? Fill the form by hand. The geolocation button needs JavaScript.

§ Radio — SatNOGS DB

ModeDescriptionDownlinkUplink
GMSK Store and dump 400.585 MHz

1 transmitter · refreshed weekly from db.satnogs.org